Weather History for Saint Simons Island, GA

Change the Weather History Date:

Friday, February 8, 2013

  Actual Average Record
Temperature  
Mean Temperature 59 °F 53 °F  
Max Temperature 66 °F 62 °F 80 °F (1999)
Min Temperature 51 °F 45 °F 27 °F (1951)
Degree Days  
Heating Degree Days 6 12  
Month to date heating degree days 79 98  
Since 1 July heating degree days 754 1049  
Cooling Degree Days 0 0  
Month to date cooling degree days 0 0  
Year to date cooling degree days 12 3  
Growing Degree Days 8 (Base 50)    
Moisture  
Dew Point 50 °F    
Average Humidity 84    
Maximum Humidity 96    
Minimum Humidity 72    
Precipitation  
Precipitation T in 0.11 in 1.61 in (1971)
Month to date precipitation 0.10 0.94  
Year to date precipitation 0.44 4.16  
Snow  
Snow 0.00 in - 0.00 in ()
Month to date snowfall 0.0  
Since 1 July snowfall 0.0  
Snow Depth 0.00 in    
Sea Level Pressure  
Sea Level Pressure 29.98 in    
Wind  
Wind Speed 8 mph (WNW)    
Max Wind Speed 16 mph    
Max Gust Speed 23 mph    
Visibility 10 miles    
Events      
T = Trace of Precipitation, MM = Missing Value Source: NWS Daily Summary

Daily Weather History Graph

Daily Weather History Graph

Search for Another Location

Airport:

Trip Planner

Search our weather history database for the weather conditions in past years. The results will help you decide how hot, cold, wet, or windy it might be!

Date:

Astronomy

Feb. 08, 2013 Rise Set
Actual Time 7:12 AM EST 6:07 PM EST
Civil Twilight 6:47 AM EST 6:32 PM EST
Nautical Twilight 6:18 AM EST 7:01 PM EST
Astronomical Twilight 5:50 AM EST 7:29 PM EST
Moon 5:36 AM EST (2/8) 4:41 PM EST (2/8)
Length of Visible Light 11h 44m
Length of Day
10h 54m
Waning Crescent, 3% of the Moon is Illuminated
Feb 8
Waning Crescent
Feb 10
New
Feb 17
First Quarter
Feb 25
Full
Mar 4
Last Quarter

Hourly Weather History & Observations

Time (EST) Temp. Dew Point Humidity Pressure Visibility Wind Dir Wind Speed Gust Speed Precip Events Conditions
12:06 AM 66.2 °F 62.6 °F 88% 29.81 in 10.0 mi West 10.4 mph 19.6 mph 0.00 in   Mostly Cloudy
12:53 AM 62.1 °F 57.9 °F 86% 29.84 in 10.0 mi WNW 13.8 mph 21.9 mph 0.00 in   Overcast
1:53 AM 57.0 °F 54.0 °F 89% 29.86 in 10.0 mi West 9.2 mph 21.9 mph N/A   Overcast
2:53 AM 55.0 °F 52.0 °F 89% 29.86 in 10.0 mi West 8.1 mph - N/A   Overcast
3:37 AM 53.6 °F 51.8 °F 94% 29.87 in 9.0 mi West 12.7 mph 20.7 mph N/A   Overcast
3:53 AM 54.0 °F 51.1 °F 90% 29.87 in 10.0 mi WNW 10.4 mph - N/A   Overcast
4:53 AM 52.0 °F 50.0 °F 93% 29.91 in 9.0 mi WNW 6.9 mph - N/A   Overcast
5:13 AM 51.8 °F 50.0 °F 94% 29.91 in 10.0 mi NW 6.9 mph - N/A   Overcast
5:53 AM 52.0 °F 48.9 °F 89% 29.92 in 10.0 mi WNW 8.1 mph - N/A   Overcast
6:53 AM 52.0 °F 48.9 °F 89% 29.95 in 10.0 mi WNW 8.1 mph - N/A   Overcast
7:10 AM 51.8 °F 48.2 °F 88% 29.96 in 10.0 mi WNW 10.4 mph - N/A   Overcast
7:53 AM 52.0 °F 48.9 °F 89% 29.98 in 10.0 mi WNW 8.1 mph - N/A   Overcast
8:49 AM 51.8 °F 48.2 °F 88% 30.00 in 10.0 mi WNW 11.5 mph 16.1 mph N/A   Overcast
8:53 AM 52.0 °F 48.9 °F 89% 30.00 in 10.0 mi WNW 8.1 mph 16.1 mph N/A   Overcast
9:08 AM 51.8 °F 48.2 °F 88% 30.00 in 10.0 mi WNW 6.9 mph - N/A   Overcast
9:38 AM 51.8 °F 48.2 °F 88% 30.01 in 10.0 mi WNW 9.2 mph 16.1 mph N/A   Overcast
9:53 AM 52.0 °F 48.0 °F 86% 30.02 in 10.0 mi WNW 9.2 mph - N/A   Overcast
10:53 AM 53.1 °F 48.0 °F 83% 30.04 in 10.0 mi WNW 9.2 mph - N/A   Overcast
11:53 AM 55.0 °F 48.0 °F 77% 30.02 in 10.0 mi West 8.1 mph - N/A   Overcast
12:53 PM 54.0 °F 48.9 °F 83% 30.01 in 10.0 mi WSW 10.4 mph - N/A   Overcast
1:53 PM 57.0 °F 48.9 °F 74% 30.00 in 10.0 mi West 11.5 mph - N/A   Overcast
2:00 PM 57.2 °F 48.2 °F 72% 30.00 in 10.0 mi West 9.2 mph 18.4 mph N/A   Overcast
2:53 PM 57.9 °F 48.9 °F 72% 30.00 in 10.0 mi West 11.5 mph - N/A   Overcast
3:53 PM 59.0 °F 50.0 °F 72% 29.99 in 10.0 mi West 10.4 mph - N/A   Mostly Cloudy
4:07 PM 59.0 °F 50.0 °F 72% 29.99 in 10.0 mi West 11.5 mph - N/A   Scattered Clouds
4:29 PM 59.0 °F 50.0 °F 72% 30.00 in 10.0 mi WNW 10.4 mph 19.6 mph N/A   Mostly Cloudy
4:53 PM 59.0 °F 50.0 °F 72% 30.00 in 10.0 mi WNW 8.1 mph - N/A   Overcast
5:24 PM 59.0 °F 50.0 °F 72% 29.99 in 10.0 mi Variable 6.9 mph - N/A   Scattered Clouds
5:53 PM 59.0 °F 50.0 °F 72% 30.00 in 10.0 mi West 8.1 mph - N/A   Clear
6:53 PM 57.0 °F 51.1 °F 81% 30.02 in 10.0 mi West 6.9 mph - N/A   Partly Cloudy
7:53 PM 55.9 °F 51.1 °F 84% 30.04 in 10.0 mi West 6.9 mph - N/A   Partly Cloudy
8:53 PM 55.0 °F 51.1 °F 86% 30.06 in 10.0 mi West 6.9 mph - N/A   Clear
9:53 PM 54.0 °F 50.0 °F 86% 30.08 in 10.0 mi West 4.6 mph - N/A   Clear
10:53 PM 53.1 °F 50.0 °F 89% 30.09 in 10.0 mi WSW 4.6 mph - N/A   Clear
11:53 PM 51.1 °F 48.9 °F 92% 30.09 in 10.0 mi WSW 4.6 mph - N/A   Clear